TimeMST,TemperatureF,Dew PointF,Humidity,Sea Level PressureIn,VisibilityMPH,Wind Direction,Wind SpeedMPH,Gust SpeedMPH,PrecipitationIn,Events,Conditions,WindDirDegrees,DateUTC
12:53 AM,77.0,66.9,71,29.93,10.0,SE,10.4,-,N/A,,Clear,140,2013-07-17 07:53:00
1:53 AM,75.9,68.0,76,29.91,10.0,SSE,5.8,-,N/A,,Clear,150,2013-07-17 08:53:00
2:53 AM,75.9,68.0,76,29.91,10.0,SSE,8.1,-,N/A,,Clear,150,2013-07-17 09:53:00
3:53 AM,77.0,66.0,69,29.90,10.0,ESE,9.2,-,N/A,,Partly Cloudy,120,2013-07-17 10:53:00
4:53 AM,77.0,66.0,69,29.91,10.0,ESE,10.4,-,N/A,,Partly Cloudy,110,2013-07-17 11:53:00
5:53 AM,78.1,64.0,62,29.94,10.0,ESE,8.1,-,N/A,,Clear,120,2013-07-17 12:53:00
6:53 AM,79.0,63.0,58,29.96,10.0,ESE,9.2,-,N/A,,Clear,120,2013-07-17 13:53:00
7:53 AM,82.9,62.1,49,29.96,10.0,SE,13.8,-,N/A,,Clear,130,2013-07-17 14:53:00
8:53 AM,87.1,60.1,40,29.95,10.0,SE,15.0,-,N/A,,Clear,140,2013-07-17 15:53:00
9:53 AM,88.0,57.0,35,29.95,10.0,ESE,17.3,-,N/A,,Clear,120,2013-07-17 16:53:00
10:53 AM,91.0,55.9,30,29.94,10.0,SE,15.0,-,N/A,,Clear,130,2013-07-17 17:53:00
11:53 AM,93.9,55.0,27,29.92,10.0,ESE,11.5,-,N/A,,Clear,120,2013-07-17 18:53:00
12:53 PM,93.9,53.1,25,29.90,10.0,Variable,6.9,-,N/A,,Clear,0,2013-07-17 19:53:00
1:53 PM,96.1,54.0,24,29.88,10.0,Variable,4.6,-,N/A,,Clear,0,2013-07-17 20:53:00
2:53 PM,96.1,53.1,23,29.86,10.0,NE,4.6,-,N/A,,Clear,50,2013-07-17 21:53:00
3:53 PM,96.1,53.1,23,29.83,10.0,Calm,Calm,-,N/A,,Clear,0,2013-07-17 22:53:00
4:53 PM,98.1,51.1,20,29.80,10.0,Calm,Calm,-,N/A,,Partly Cloudy,0,2013-07-17 23:53:00
5:53 PM,97.0,52.0,22,29.81,10.0,East,8.1,-,N/A,,Mostly Cloudy,90,2013-07-18 00:53:00
6:53 PM,95.0,51.1,22,29.82,10.0,ENE,8.1,-,N/A,,Mostly Cloudy,60,2013-07-18 01:53:00
7:53 PM,87.1,57.9,37,29.86,10.0,East,18.4,24.2,N/A,,Mostly Cloudy,90,2013-07-18 02:53:00
8:53 PM,88.0,55.9,34,29.87,10.0,SE,8.1,-,N/A,,Mostly Cloudy,130,2013-07-18 03:53:00
9:53 PM,87.1,54.0,32,29.88,10.0,East,12.7,-,N/A,,Partly Cloudy,100,2013-07-18 04:53:00
10:53 PM,87.1,55.0,33,29.89,10.0,ESE,12.7,-,N/A,,Mostly Cloudy,120,2013-07-18 05:53:00
11:53 PM,86.0,55.9,36,29.89,10.0,ESE,15.0,-,N/A,,Mostly Cloudy,120,2013-07-18 06:53:00